owner,sensor,date,latitude,longitude,vertical_datum,wind_speed,wind_to_direction,wind_speed_of_gust,qcFlag 
TCOON,ioos:station:TCOON:068:1,2008-02-01T00:00:00Z,27.2970,-97.4049,0.0,10.8,325.0,13.2,'11111222,11111222,11111222' 
TCOON,ioos:station:TCOON:068:1,2008-02-01T01:00:00Z,27.2970,-97.4049,0.0,8.6,321.0,10.6,'11111222,11111222,11111222' 
TCOON,ioos:station:TCOON:068:1,2008-02-01T05:00:00Z,27.2970,-97.4049,0.0,4.8,330.0,5.5,'11111222,11111222,11111222' 
TCOON,ioos:station:TCOON:068:1,2008-02-01T06:00:00Z,27.2970,-97.4049,0.0,3.6,345.0,4.8,'11111222,11111222,11111222' 
TCOON,ioos:station:TCOON:068:1,2008-02-01T07:00:00Z,27.2970,-97.4049,0.0,4.0,348.0,4.5,'11111222,11111222,11111222' 
TCOON,ioos:station:TCOON:068:1,2008-02-01T08:00:00Z,27.2970,-97.4049,0.0,4.2,3.0,5.1,'11111222,11111222,11111222' 
TCOON,ioos:station:TCOON:068:1,2008-02-01T09:00:00Z,27.2970,-97.4049,0.0,5.3,21.0,6.9,'11111222,11111222,11111222' 
TCOON,ioos:station:TCOON:068:1,2008-02-01T10:00:00Z,27.2970,-97.4049,0.0,7.8,10.0,9.1,'11111222,11111222,11111222' 
TCOON,ioos:station:TCOON:068:1,2008-02-01T11:00:00Z,27.2970,-97.4049,0.0,3.2,337.0,3.9,'11111222,11111222,11111222' 
TCOON,ioos:station:TCOON:068:1,2008-02-01T12:00:00Z,27.2970,-97.4049,0.0,2.0,340.0,2.6,'11111222,11111222,11111222' 
TCOON,ioos:station:TCOON:068:1,2008-02-01T14:00:00Z,27.2970,-97.4049,0.0,2.1,325.0,2.5,'11111222,11111222,11111222' 
TCOON,ioos:station:TCOON:068:1,2008-02-01T15:00:00Z,27.2970,-97.4049,0.0,2.4,317.0,2.7,'11111222,11111222,11111222' 
TCOON,ioos:station:TCOON:068:1,2008-02-01T16:00:00Z,27.2970,-97.4049,0.0,2.1,10.0,2.4,'11111222,11111222,11111222' 
TCOON,ioos:station:TCOON:068:1,2008-02-01T17:00:00Z,27.2970,-97.4049,0.0,3.4,78.0,4.8,'11111222,11111222,11111222' 
TCOON,ioos:station:TCOON:068:1,2008-02-01T18:00:00Z,27.2970,-97.4049,0.0,4.3,73.0,5.8,'11111222,11111222,11111222' 
TCOON,ioos:station:TCOON:068:1,2008-02-01T19:00:00Z,27.2970,-97.4049,0.0,3.8,82.0,5.1,'11111222,11111222,11111222' 
TCOON,ioos:station:TCOON:068:1,2008-02-01T20:00:00Z,27.2970,-97.4049,0.0,3.9,94.0,5.9,'11111222,11111222,11111222' 
TCOON,ioos:station:TCOON:068:1,2008-02-01T21:00:00Z,27.2970,-97.4049,0.0,5.0,95.0,6.5,'11111222,11111222,11111222' 
TCOON,ioos:station:TCOON:068:1,2008-02-01T22:00:00Z,27.2970,-97.4049,0.0,5.6,96.0,6.7,'11111222,11111222,11111222' 
TCOON,ioos:station:TCOON:068:1,2008-02-01T23:00:00Z,27.2970,-97.4049,0.0,5.0,107.0,5.9,'11111222,11111222,11111222' 
TCOON,ioos:station:TCOON:068:1,2008-02-02T00:00:00Z,27.2970,-97.4049,0.0,3.4,111.0,3.9,'11111222,11111222,11111222' 
TCOON,ioos:station:TCOON:068:1,2008-02-02T01:00:00Z,27.2970,-97.4049,0.0,3.8,148.0,4.9,'11111222,11111222,11111222' 
TCOON,ioos:station:TCOON:068:1,2008-02-02T02:00:00Z,27.2970,-97.4049,0.0,4.6,157.0,5.2,'11111222,11111222,11111222' 
TCOON,ioos:station:TCOON:068:1,2008-02-02T03:00:00Z,27.2970,-97.4049,0.0,4.3,157.0,4.9,'11111222,11111222,11111222' 
TCOON,ioos:station:TCOON:068:1,2008-02-02T04:00:00Z,27.2970,-97.4049,0.0,3.6,154.0,4.4,'11111222,11111222,11111222' 
TCOON,ioos:station:TCOON:068:1,2008-02-02T05:00:00Z,27.2970,-97.4049,0.0,3.1,158.0,3.6,'11111222,11111222,11111222' 
TCOON,ioos:station:TCOON:068:1,2008-02-02T06:00:00Z,27.2970,-97.4049,0.0,4.6,141.0,5.4,'11111222,11111222,11111222' 
TCOON,ioos:station:TCOON:068:1,2008-02-02T07:00:00Z,27.2970,-97.4049,0.0,5.3,143.0,6.2,'11111222,11111222,11111222' 
TCOON,ioos:station:TCOON:068:1,2008-02-02T08:00:00Z,27.2970,-97.4049,0.0,5.4,145.0,6.7,'11111222,11111222,11111222' 
TCOON,ioos:station:TCOON:068:1,2008-02-02T09:00:00Z,27.2970,-97.4049,0.0,4.0,136.0,4.9,'11111222,11111222,11111222' 
TCOON,ioos:station:TCOON:068:1,2008-02-02T10:00:00Z,27.2970,-97.4049,0.0,3.2,134.0,3.7,'11111222,11111222,11111222' 
TCOON,ioos:station:TCOON:068:1,2008-02-02T11:00:00Z,27.2970,-97.4049,0.0,3.1,129.0,3.7,'11111222,11111222,11111222' 
TCOON,ioos:station:TCOON:068:1,2008-02-02T12:00:00Z,27.2970,-97.4049,0.0,4.3,130.0,5.2,'11111222,11111222,11111222' 
TCOON,ioos:station:TCOON:068:1,2008-02-02T13:00:00Z,27.2970,-97.4049,0.0,3.9,118.0,4.5,'11111222,11111222,11111222' 
TCOON,ioos:station:TCOON:068:1,2008-02-02T14:00:00Z,27.2970,-97.4049,0.0,3.3,106.0,4.0,'11111222,11111222,11111222' 
TCOON,ioos:station:TCOON:068:1,2008-02-02T15:00:00Z,27.2970,-97.4049,0.0,4.4,124.0,5.5,'11111222,11111222,11111222' 
TCOON,ioos:station:TCOON:068:1,2008-02-02T16:00:00Z,27.2970,-97.4049,0.0,5.5,129.0,6.9,'11111222,11111222,11111222' 
TCOON,ioos:station:TCOON:068:1,2008-02-02T17:00:00Z,27.2970,-97.4049,0.0,5.9,125.0,7.5,'11111222,11111222,11111222' 
TCOON,ioos:station:TCOON:068:1,2008-02-02T18:00:00Z,27.2970,-97.4049,0.0,7.0,131.0,8.6,'11111222,11111222,11111222' 
TCOON,ioos:station:TCOON:068:1,2008-02-02T19:00:00Z,27.2970,-97.4049,0.0,7.5,121.0,9.9,'11111222,11111222,11111222' 
TCOON,ioos:station:TCOON:068:1,2008-02-02T20:00:00Z,27.2970,-97.4049,0.0,7.7,121.0,9.3,'11111222,11111222,11111222' 
TCOON,ioos:station:TCOON:068:1,2008-02-02T21:00:00Z,27.2970,-97.4049,0.0,6.9,118.0,8.4,'11111222,11111222,11111222' 
TCOON,ioos:station:TCOON:068:1,2008-02-02T22:00:00Z,27.2970,-97.4049,0.0,6.2,111.0,7.9,'11111222,11111222,11111222' 
TCOON,ioos:station:TCOON:068:1,2008-02-02T23:00:00Z,27.2970,-97.4049,0.0,5.7,94.0,6.9,'11111222,11111222,11111222' 
TCOON,ioos:station:TCOON:068:1,2008-02-03T00:00:00Z,27.2970,-97.4049,0.0,6.3,90.0,7.0,'11111222,11111222,11111222' 
TCOON,ioos:station:TCOON:068:1,2008-02-03T01:00:00Z,27.2970,-97.4049,0.0,7.3,96.0,8.5,'11111222,11111222,11111222' 
TCOON,ioos:station:TCOON:068:1,2008-02-03T02:00:00Z,27.2970,-97.4049,0.0,5.5,96.0,6.7,'11111222,11111222,11111222' 
TCOON,ioos:station:TCOON:068:1,2008-02-03T03:00:00Z,27.2970,-97.4049,0.0,5.3,93.0,5.8,'11111222,11111222,11111222' 
TCOON,ioos:station:TCOON:068:1,2008-02-03T04:00:00Z,27.2970,-97.4049,0.0,3.8,96.0,4.2,'11111222,11111222,11111222' 
TCOON,ioos:station:TCOON:068:1,2008-02-03T05:00:00Z,27.2970,-97.4049,0.0,3.1,95.0,3.6,'11111222,11111222,11111222' 
TCOON,ioos:station:TCOON:068:1,2008-02-03T06:00:00Z,27.2970,-97.4049,0.0,4.0,106.0,4.9,'11111222,11111222,11111222' 
TCOON,ioos:station:TCOON:068:1,2008-02-03T07:00:00Z,27.2970,-97.4049,0.0,4.1,129.0,4.9,'11111222,11111222,11111222' 
TCOON,ioos:station:TCOON:068:1,2008-02-03T08:00:00Z,27.2970,-97.4049,0.0,4.3,151.0,4.9,'11111222,11111222,11111222' 
TCOON,ioos:station:TCOON:068:1,2008-02-03T09:00:00Z,27.2970,-97.4049,0.0,5.8,157.0,6.6,'11111222,11111222,11111222' 
TCOON,ioos:station:TCOON:068:1,2008-02-03T10:00:00Z,27.2970,-97.4049,0.0,3.9,162.0,4.5,'11111222,11111222,11111222' 
TCOON,ioos:station:TCOON:068:1,2008-02-03T11:00:00Z,27.2970,-97.4049,0.0,3.7,156.0,4.7,'11111222,11111222,11111222' 
TCOON,ioos:station:TCOON:068:1,2008-02-03T12:00:00Z,27.2970,-97.4049,0.0,3.2,139.0,3.6,'11111222,11111222,11111222' 
TCOON,ioos:station:TCOON:068:1,2008-02-03T13:00:00Z,27.2970,-97.4049,0.0,3.8,124.0,4.6,'11111222,11111222,11111222' 
TCOON,ioos:station:TCOON:068:1,2008-02-03T14:00:00Z,27.2970,-97.4049,0.0,2.9,149.0,3.5,'11111222,11111222,11111222' 
TCOON,ioos:station:TCOON:068:1,2008-02-03T15:00:00Z,27.2970,-97.4049,0.0,2.1,209.0,2.3,'11111222,11111222,11111222' 
TCOON,ioos:station:TCOON:068:1,2008-02-03T16:00:00Z,27.2970,-97.4049,0.0,4.1,155.0,4.8,'11111222,11111222,11111222' 
TCOON,ioos:station:TCOON:068:1,2008-02-03T18:00:00Z,27.2970,-97.4049,0.0,8.1,141.0,9.6,'11111222,11111222,11111222' 
TCOON,ioos:station:TCOON:068:1,2008-02-03T19:00:00Z,27.2970,-97.4049,0.0,7.1,137.0,9.4,'11111222,11111222,11111222' 
TCOON,ioos:station:TCOON:068:1,2008-02-03T20:00:00Z,27.2970,-97.4049,0.0,8.4,132.0,10.4,'11111222,11111222,11111222' 
TCOON,ioos:station:TCOON:068:1,2008-02-03T21:00:00Z,27.2970,-97.4049,0.0,9.8,134.0,11.9,'11111222,11111222,11111222' 
TCOON,ioos:station:TCOON:068:1,2008-02-03T22:00:00Z,27.2970,-97.4049,0.0,10.2,127.0,12.5,'11111222,11111222,11111222' 
TCOON,ioos:station:TCOON:068:1,2008-02-03T23:00:00Z,27.2970,-97.4049,0.0,10.0,130.0,13.0,'11111222,11111222,11111222' 
TCOON,ioos:station:TCOON:068:1,2008-02-04T00:00:00Z,27.2970,-97.4049,0.0,10.1,133.0,13.3,'11111222,11111222,11111222' 
TCOON,ioos:station:TCOON:068:1,2008-02-04T01:00:00Z,27.2970,-97.4049,0.0,8.8,138.0,11.0,'11111222,11111222,11111222' 
TCOON,ioos:station:TCOON:068:1,2008-02-04T02:00:00Z,27.2970,-97.4049,0.0,8.2,142.0,10.3,'11111222,11111222,11111222' 
TCOON,ioos:station:TCOON:068:1,2008-02-04T03:00:00Z,27.2970,-97.4049,0.0,9.2,143.0,12.0,'11111222,11111222,11111222' 
TCOON,ioos:station:TCOON:068:1,2008-02-04T04:00:00Z,27.2970,-97.4049,0.0,9.7,141.0,11.4,'11111222,11111222,11111222' 
TCOON,ioos:station:TCOON:068:1,2008-02-04T05:00:00Z,27.2970,-97.4049,0.0,9.4,140.0,11.2,'11111222,11111222,11111222' 
TCOON,ioos:station:TCOON:068:1,2008-02-04T06:00:00Z,27.2970,-97.4049,0.0,8.6,138.0,10.3,'11111222,11111222,11111222' 
TCOON,ioos:station:TCOON:068:1,2008-02-04T07:00:00Z,27.2970,-97.4049,0.0,8.5,138.0,11.6,'11111222,11111222,11111222' 
TCOON,ioos:station:TCOON:068:1,2008-02-04T08:00:00Z,27.2970,-97.4049,0.0,9.1,139.0,99.0,'11111222,11111222,11144222' 
TCOON,ioos:station:TCOON:068:1,2008-02-04T09:00:00Z,27.2970,-97.4049,0.0,9.0,144.0,11.6,'11111222,11111222,11111222' 
TCOON,ioos:station:TCOON:068:1,2008-02-04T10:00:00Z,27.2970,-97.4049,0.0,8.6,147.0,11.2,'11111222,11111222,11111222' 
TCOON,ioos:station:TCOON:068:1,2008-02-04T11:00:00Z,27.2970,-97.4049,0.0,9.3,141.0,11.4,'11111222,11111222,11111222' 
TCOON,ioos:station:TCOON:068:1,2008-02-04T12:00:00Z,27.2970,-97.4049,0.0,10.0,140.0,12.3,'11111222,11111222,11111222' 
TCOON,ioos:station:TCOON:068:1,2008-02-04T13:00:00Z,27.2970,-97.4049,0.0,6.9,146.0,8.5,'11111222,11111222,11111222' 
TCOON,ioos:station:TCOON:068:1,2008-02-04T14:00:00Z,27.2970,-97.4049,0.0,9.4,143.0,11.4,'11111222,11111222,11111222' 
TCOON,ioos:station:TCOON:068:1,2008-02-04T15:00:00Z,27.2970,-97.4049,0.0,10.6,143.0,12.5,'11111222,11111222,11111222' 
TCOON,ioos:station:TCOON:068:1,2008-02-04T16:00:00Z,27.2970,-97.4049,0.0,8.3,145.0,10.2,'11111222,11111222,11111222' 
TCOON,ioos:station:TCOON:068:1,2008-02-04T17:00:00Z,27.2970,-97.4049,0.0,9.1,148.0,10.6,'11111222,11111222,11111222' 
TCOON,ioos:station:TCOON:068:1,2008-02-04T18:00:00Z,27.2970,-97.4049,0.0,11.3,141.0,13.4,'11111222,11111222,11111222' 
TCOON,ioos:station:TCOON:068:1,2008-02-04T19:00:00Z,27.2970,-97.4049,0.0,9.8,140.0,11.9,'11111222,11111222,11111222' 
TCOON,ioos:station:TCOON:068:1,2008-02-04T20:00:00Z,27.2970,-97.4049,0.0,11.6,140.0,13.8,'11111222,11111222,11111222' 
TCOON,ioos:station:TCOON:068:1,2008-02-04T21:00:00Z,27.2970,-97.4049,0.0,12.9,141.0,15.9,'11111222,11111222,11111222' 
TCOON,ioos:station:TCOON:068:1,2008-02-04T22:00:00Z,27.2970,-97.4049,0.0,12.5,139.0,15.4,'11111222,11111222,11111222' 
TCOON,ioos:station:TCOON:068:1,2008-02-04T23:00:00Z,27.2970,-97.4049,0.0,11.2,136.0,14.3,'11111222,11111222,11111222' 
TCOON,ioos:station:TCOON:068:1,2008-02-05T00:00:00Z,27.2970,-97.4049,0.0,9.7,136.0,12.6,'11111222,11111222,11111222' 
TCOON,ioos:station:TCOON:068:1,2008-02-05T01:00:00Z,27.2970,-97.4049,0.0,9.2,142.0,11.8,'11111222,11111222,11111222' 
TCOON,ioos:station:TCOON:068:1,2008-02-05T02:00:00Z,27.2970,-97.4049,0.0,7.4,137.0,9.4,'11111222,11111222,11111222' 
TCOON,ioos:station:TCOON:068:1,2008-02-05T03:00:00Z,27.2970,-97.4049,0.0,9.7,142.0,11.4,'11111222,11111222,11111222' 
TCOON,ioos:station:TCOON:068:1,2008-02-05T04:00:00Z,27.2970,-97.4049,0.0,7.3,141.0,8.6,'11111222,11111222,11111222' 
TCOON,ioos:station:TCOON:068:1,2008-02-05T05:00:00Z,27.2970,-97.4049,0.0,6.2,156.0,7.4,'11111222,11111222,11111222' 
TCOON,ioos:station:TCOON:068:1,2008-02-05T06:00:00Z,27.2970,-97.4049,0.0,10.8,155.0,13.4,'11111222,11111222,11111222' 
TCOON,ioos:station:TCOON:068:1,2008-02-05T07:00:00Z,27.2970,-97.4049,0.0,9.6,150.0,11.7,'11111222,11111222,11111222' 
TCOON,ioos:station:TCOON:068:1,2008-02-05T08:00:00Z,27.2970,-97.4049,0.0,7.8,144.0,9.8,'11111222,11111222,11111222' 
TCOON,ioos:station:TCOON:068:1,2008-02-05T09:00:00Z,27.2970,-97.4049,0.0,8.8,144.0,10.5,'11111222,11111222,11111222' 
TCOON,ioos:station:TCOON:068:1,2008-02-05T10:00:00Z,27.2970,-97.4049,0.0,9.3,143.0,12.5,'11111222,11111222,11111222' 
TCOON,ioos:station:TCOON:068:1,2008-02-05T11:00:00Z,27.2970,-97.4049,0.0,9.1,146.0,11.6,'11111222,11111222,11111222' 
TCOON,ioos:station:TCOON:068:1,2008-02-05T12:00:00Z,27.2970,-97.4049,0.0,9.1,146.0,33.4,'11111222,11111222,11111222' 
TCOON,ioos:station:TCOON:068:1,2008-02-05T13:00:00Z,27.2970,-97.4049,0.0,10.9,151.0,12.9,'11111222,11111222,11111222' 
TCOON,ioos:station:TCOON:068:1,2008-02-05T14:00:00Z,27.2970,-97.4049,0.0,9.6,146.0,12.2,'11111222,11111222,11111222' 
TCOON,ioos:station:TCOON:068:1,2008-02-05T15:00:00Z,27.2970,-97.4049,0.0,10.6,153.0,12.8,'11111222,11111222,11111222' 
TCOON,ioos:station:TCOON:068:1,2008-02-05T16:00:00Z,27.2970,-97.4049,0.0,8.2,152.0,9.8,'11111222,11111222,11111222' 
TCOON,ioos:station:TCOON:068:1,2008-02-05T17:00:00Z,27.2970,-97.4049,0.0,10.0,142.0,12.1,'11111222,11111222,11111222' 
TCOON,ioos:station:TCOON:068:1,2008-02-05T18:00:00Z,27.2970,-97.4049,0.0,9.3,144.0,11.6,'11111222,11111222,11111222' 
TCOON,ioos:station:TCOON:068:1,2008-02-05T19:00:00Z,27.2970,-97.4049,0.0,10.2,143.0,12.4,'11111222,11111222,11111222' 
TCOON,ioos:station:TCOON:068:1,2008-02-05T20:00:00Z,27.2970,-97.4049,0.0,10.2,138.0,12.2,'11111222,11111222,11111222' 
TCOON,ioos:station:TCOON:068:1,2008-02-05T21:00:00Z,27.2970,-97.4049,0.0,9.7,138.0,12.2,'11111222,11111222,11111222' 
TCOON,ioos:station:TCOON:068:1,2008-02-05T22:00:00Z,27.2970,-97.4049,0.0,11.2,138.0,13.9,'11111222,11111222,11111222' 
TCOON,ioos:station:TCOON:068:1,2008-02-05T23:00:00Z,27.2970,-97.4049,0.0,10.7,139.0,13.4,'11111222,11111222,11111222' 
TCOON,ioos:station:TCOON:068:1,2008-02-06T00:00:00Z,27.2970,-97.4049,0.0,10.1,139.0,12.3,'11111222,11111222,11111222' 
TCOON,ioos:station:TCOON:068:1,2008-02-06T01:00:00Z,27.2970,-97.4049,0.0,8.0,170.0,9.6,'11111222,11111222,11111222' 
TCOON,ioos:station:TCOON:068:1,2008-02-06T02:00:00Z,27.2970,-97.4049,0.0,10.6,322.0,12.3,'11111222,11111222,11111222' 
TCOON,ioos:station:TCOON:068:1,2008-02-06T03:00:00Z,27.2970,-97.4049,0.0,8.5,333.0,10.1,'11111222,11111222,11111222' 
TCOON,ioos:station:TCOON:068:1,2008-02-06T04:00:00Z,27.2970,-97.4049,0.0,6.5,334.0,7.6,'11111222,11111222,11111222' 
TCOON,ioos:station:TCOON:068:1,2008-02-06T05:00:00Z,27.2970,-97.4049,0.0,5.6,325.0,6.6,'11111222,11111222,11111222' 
TCOON,ioos:station:TCOON:068:1,2008-02-06T06:00:00Z,27.2970,-97.4049,0.0,6.7,325.0,8.0,'11111222,11111222,11111222' 
TCOON,ioos:station:TCOON:068:1,2008-02-06T07:00:00Z,27.2970,-97.4049,0.0,9.4,332.0,11.7,'11111222,11111222,11111222' 
TCOON,ioos:station:TCOON:068:1,2008-02-06T08:00:00Z,27.2970,-97.4049,0.0,7.9,332.0,9.2,'11111222,11111222,11111222' 
TCOON,ioos:station:TCOON:068:1,2008-02-06T09:00:00Z,27.2970,-97.4049,0.0,6.6,325.0,7.5,'11111222,11111222,11111222' 
TCOON,ioos:station:TCOON:068:1,2008-02-06T10:00:00Z,27.2970,-97.4049,0.0,5.8,322.0,6.5,'11111222,11111222,11111222' 
TCOON,ioos:station:TCOON:068:1,2008-02-06T11:00:00Z,27.2970,-97.4049,0.0,6.6,323.0,8.1,'11111222,11111222,11111222' 
TCOON,ioos:station:TCOON:068:1,2008-02-06T12:00:00Z,27.2970,-97.4049,0.0,5.5,331.0,6.8,'11111222,11111222,11111222' 
TCOON,ioos:station:TCOON:068:1,2008-02-06T13:00:00Z,27.2970,-97.4049,0.0,7.5,337.0,8.8,'11111222,11111222,11111222' 
TCOON,ioos:station:TCOON:068:1,2008-02-06T14:00:00Z,27.2970,-97.4049,0.0,7.0,349.0,8.3,'11111222,11111222,11111222' 
TCOON,ioos:station:TCOON:068:1,2008-02-06T15:00:00Z,27.2970,-97.4049,0.0,7.6,351.0,8.4,'11111222,11111222,11111222' 
TCOON,ioos:station:TCOON:068:1,2008-02-06T16:00:00Z,27.2970,-97.4049,0.0,7.3,1.0,8.1,'11111222,11111222,11111222' 
TCOON,ioos:station:TCOON:068:1,2008-02-06T17:00:00Z,27.2970,-97.4049,0.0,3.7,38.0,4.9,'11111222,11111222,11111222' 
TCOON,ioos:station:TCOON:068:1,2008-02-06T18:00:00Z,27.2970,-97.4049,0.0,2.8,63.0,3.7,'11111222,11111222,11111222' 
TCOON,ioos:station:TCOON:068:1,2008-02-06T19:00:00Z,27.2970,-97.4049,0.0,1.2,92.0,1.9,'11111222,11111222,11111222' 
TCOON,ioos:station:TCOON:068:1,2008-02-06T20:00:00Z,27.2970,-97.4049,0.0,3.5,86.0,4.0,'11111222,11111222,11111222' 
TCOON,ioos:station:TCOON:068:1,2008-02-06T21:00:00Z,27.2970,-97.4049,0.0,3.6,101.0,4.3,'11111222,11111222,11111222' 
TCOON,ioos:station:TCOON:068:1,2008-02-06T22:00:00Z,27.2970,-97.4049,0.0,4.5,97.0,5.2,'11111222,11111222,11111222' 
TCOON,ioos:station:TCOON:068:1,2008-02-06T23:00:00Z,27.2970,-97.4049,0.0,5.1,90.0,5.7,'11111222,11111222,11111222' 
TCOON,ioos:station:TCOON:068:1,2008-02-07T00:00:00Z,27.2970,-97.4049,0.0,5.7,83.0,6.3,'11111222,11111222,11111222' 
TCOON,ioos:station:TCOON:068:1,2008-02-07T01:00:00Z,27.2970,-97.4049,0.0,5.4,101.0,6.2,'11111222,11111222,11111222' 
TCOON,ioos:station:TCOON:068:1,2008-02-07T02:00:00Z,27.2970,-97.4049,0.0,4.7,101.0,5.6,'11111222,11111222,11111222' 
TCOON,ioos:station:TCOON:068:1,2008-02-07T03:00:00Z,27.2970,-97.4049,0.0,5.0,105.0,5.7,'11111222,11111222,11111222' 
TCOON,ioos:station:TCOON:068:1,2008-02-07T04:00:00Z,27.2970,-97.4049,0.0,4.2,98.0,5.0,'11111222,11111222,11111222' 
TCOON,ioos:station:TCOON:068:1,2008-02-07T05:00:00Z,27.2970,-97.4049,0.0,4.0,102.0,4.7,'11111222,11111222,11111222' 
TCOON,ioos:station:TCOON:068:1,2008-02-07T06:00:00Z,27.2970,-97.4049,0.0,3.7,131.0,4.7,'11111222,11111222,11111222' 
TCOON,ioos:station:TCOON:068:1,2008-02-07T07:00:00Z,27.2970,-97.4049,0.0,3.5,126.0,4.1,'11111222,11111222,11111222' 
TCOON,ioos:station:TCOON:068:1,2008-02-07T08:00:00Z,27.2970,-97.4049,0.0,4.3,138.0,5.6,'11111222,11111222,11111222' 
TCOON,ioos:station:TCOON:068:1,2008-02-07T09:00:00Z,27.2970,-97.4049,0.0,4.3,132.0,5.2,'11111222,11111222,11111222' 
TCOON,ioos:station:TCOON:068:1,2008-02-07T10:00:00Z,27.2970,-97.4049,0.0,4.1,149.0,4.6,'11111222,11111222,11111222' 
TCOON,ioos:station:TCOON:068:1,2008-02-07T11:00:00Z,27.2970,-97.4049,0.0,3.4,160.0,4.0,'11111222,11111222,11111222' 
TCOON,ioos:station:TCOON:068:1,2008-02-07T12:00:00Z,27.2970,-97.4049,0.0,4.4,201.0,4.8,'11111222,11111222,11111222' 
TCOON,ioos:station:TCOON:068:1,2008-02-07T13:00:00Z,27.2970,-97.4049,0.0,3.9,204.0,4.5,'11111222,11111222,11111222' 
TCOON,ioos:station:TCOON:068:1,2008-02-07T14:00:00Z,27.2970,-97.4049,0.0,3.3,208.0,3.7,'11111222,11111222,11111222' 
TCOON,ioos:station:TCOON:068:1,2008-02-07T15:00:00Z,27.2970,-97.4049,0.0,3.9,183.0,4.6,'11111222,11111222,11111222' 
TCOON,ioos:station:TCOON:068:1,2008-02-07T16:00:00Z,27.2970,-97.4049,0.0,4.1,169.0,4.8,'11111222,11111222,11111222' 
TCOON,ioos:station:TCOON:068:1,2008-02-07T17:00:00Z,27.2970,-97.4049,0.0,5.1,161.0,6.2,'11111222,11111222,11111222' 
TCOON,ioos:station:TCOON:068:1,2008-02-07T18:00:00Z,27.2970,-97.4049,0.0,3.8,141.0,4.8,'11111222,11111222,11111222' 
TCOON,ioos:station:TCOON:068:1,2008-02-07T19:00:00Z,27.2970,-97.4049,0.0,3.9,111.0,4.6,'11111222,11111222,11111222' 
TCOON,ioos:station:TCOON:068:1,2008-02-07T20:00:00Z,27.2970,-97.4049,0.0,4.1,98.0,5.0,'11111222,11111222,11111222' 
TCOON,ioos:station:TCOON:068:1,2008-02-07T21:00:00Z,27.2970,-97.4049,0.0,5.0,106.0,6.0,'11111222,11111222,11111222' 
TCOON,ioos:station:TCOON:068:1,2008-02-07T22:00:00Z,27.2970,-97.4049,0.0,5.9,118.0,6.9,'11111222,11111222,11111222' 
TCOON,ioos:station:TCOON:068:1,2008-02-07T23:00:00Z,27.2970,-97.4049,0.0,6.9,122.0,11.4,'11111222,11111222,11111222' 
TCOON,ioos:station:TCOON:068:1,2008-02-08T00:00:00Z,27.2970,-97.4049,0.0,4.6,133.0,6.2,'11111222,11111222,11111222' 
TCOON,ioos:station:TCOON:068:1,2008-02-08T01:00:00Z,27.2970,-97.4049,0.0,3.9,144.0,4.6,'11111222,11111222,11111222' 
TCOON,ioos:station:TCOON:068:1,2008-02-08T02:00:00Z,27.2970,-97.4049,0.0,2.1,131.0,2.6,'11111222,11111222,11111222' 
TCOON,ioos:station:TCOON:068:1,2008-02-08T03:00:00Z,27.2970,-97.4049,0.0,3.5,148.0,4.1,'11111222,11111222,11111222' 
TCOON,ioos:station:TCOON:068:1,2008-02-08T04:00:00Z,27.2970,-97.4049,0.0,4.0,157.0,4.6,'11111222,11111222,11111222' 
TCOON,ioos:station:TCOON:068:1,2008-02-08T05:00:00Z,27.2970,-97.4049,0.0,4.6,165.0,5.3,'11111222,11111222,11111222' 
TCOON,ioos:station:TCOON:068:1,2008-02-08T06:00:00Z,27.2970,-97.4049,0.0,4.2,167.0,4.8,'11111222,11111222,11111222' 
TCOON,ioos:station:TCOON:068:1,2008-02-08T07:00:00Z,27.2970,-97.4049,0.0,3.0,179.0,3.4,'11111222,11111222,11111222' 
TCOON,ioos:station:TCOON:068:1,2008-02-08T08:00:00Z,27.2970,-97.4049,0.0,3.3,143.0,3.7,'11111222,11111222,11111222' 
TCOON,ioos:station:TCOON:068:1,2008-02-08T09:00:00Z,27.2970,-97.4049,0.0,2.5,132.0,2.9,'11111222,11111222,11111222' 
TCOON,ioos:station:TCOON:068:1,2008-02-08T10:00:00Z,27.2970,-97.4049,0.0,3.5,155.0,4.0,'11111222,11111222,11111222' 
TCOON,ioos:station:TCOON:068:1,2008-02-08T11:00:00Z,27.2970,-97.4049,0.0,4.1,157.0,4.8,'11111222,11111222,11111222' 
TCOON,ioos:station:TCOON:068:1,2008-02-08T12:00:00Z,27.2970,-97.4049,0.0,4.5,152.0,5.0,'11111222,11111222,11111222' 
TCOON,ioos:station:TCOON:068:1,2008-02-08T13:00:00Z,27.2970,-97.4049,0.0,3.8,151.0,4.4,'11111222,11111222,11111222' 
TCOON,ioos:station:TCOON:068:1,2008-02-08T14:00:00Z,27.2970,-97.4049,0.0,4.9,150.0,6.0,'11111222,11111222,11111222' 
TCOON,ioos:station:TCOON:068:1,2008-02-08T15:00:00Z,27.2970,-97.4049,0.0,6.4,168.0,7.5,'11111222,11111222,11111222' 
TCOON,ioos:station:TCOON:068:1,2008-02-08T16:00:00Z,27.2970,-97.4049,0.0,5.1,161.0,5.7,'11111222,11111222,11111222' 
TCOON,ioos:station:TCOON:068:1,2008-02-08T17:00:00Z,27.2970,-97.4049,0.0,8.5,158.0,10.3,'11111222,11111222,11111222' 
TCOON,ioos:station:TCOON:068:1,2008-02-08T18:00:00Z,27.2970,-97.4049,0.0,7.2,141.0,8.4,'11111222,11111222,11111222' 
TCOON,ioos:station:TCOON:068:1,2008-02-08T19:00:00Z,27.2970,-97.4049,0.0,8.1,138.0,9.4,'11111222,11111222,11111222' 
TCOON,ioos:station:TCOON:068:1,2008-02-08T20:00:00Z,27.2970,-97.4049,0.0,7.1,135.0,8.7,'11111222,11111222,11111222' 
TCOON,ioos:station:TCOON:068:1,2008-02-08T21:00:00Z,27.2970,-97.4049,0.0,8.2,128.0,9.7,'11111222,11111222,11111222' 
TCOON,ioos:station:TCOON:068:1,2008-02-08T22:00:00Z,27.2970,-97.4049,0.0,8.7,127.0,10.8,'11111222,11111222,11111222' 
TCOON,ioos:station:TCOON:068:1,2008-02-08T23:00:00Z,27.2970,-97.4049,0.0,9.0,135.0,11.4,'11111222,11111222,11111222' 
TCOON,ioos:station:TCOON:068:1,2008-02-09T00:00:00Z,27.2970,-97.4049,0.0,9.0,133.0,11.0,'11111222,11111222,11111222' 
TCOON,ioos:station:TCOON:068:1,2008-02-09T01:00:00Z,27.2970,-97.4049,0.0,8.0,137.0,10.4,'11111222,11111222,11111222' 
TCOON,ioos:station:TCOON:068:1,2008-02-09T02:00:00Z,27.2970,-97.4049,0.0,9.4,144.0,11.3,'11111222,11111222,11111222' 
TCOON,ioos:station:TCOON:068:1,2008-02-09T03:00:00Z,27.2970,-97.4049,0.0,6.2,138.0,7.3,'11111222,11111222,11111222' 
TCOON,ioos:station:TCOON:068:1,2008-02-09T04:00:00Z,27.2970,-97.4049,0.0,5.2,151.0,6.3,'11111222,11111222,11111222' 
TCOON,ioos:station:TCOON:068:1,2008-02-09T05:00:00Z,27.2970,-97.4049,0.0,4.9,155.0,5.8,'11111222,11111222,11111222' 
TCOON,ioos:station:TCOON:068:1,2008-02-09T06:00:00Z,27.2970,-97.4049,0.0,4.1,153.0,5.0,'11111222,11111222,11111222' 
TCOON,ioos:station:TCOON:068:1,2008-02-09T07:00:00Z,27.2970,-97.4049,0.0,3.0,143.0,3.4,'11111222,11111222,11111222' 
TCOON,ioos:station:TCOON:068:1,2008-02-09T08:00:00Z,27.2970,-97.4049,0.0,2.6,125.0,3.2,'11111222,11111222,11111222' 
TCOON,ioos:station:TCOON:068:1,2008-02-09T09:00:00Z,27.2970,-97.4049,0.0,3.1,102.0,3.6,'11111222,11111222,11111222' 
TCOON,ioos:station:TCOON:068:1,2008-02-09T10:00:00Z,27.2970,-97.4049,0.0,3.7,115.0,4.5,'11111222,11111222,11111222' 
TCOON,ioos:station:TCOON:068:1,2008-02-09T11:00:00Z,27.2970,-97.4049,0.0,4.0,119.0,4.7,'11111222,11111222,11111222' 
TCOON,ioos:station:TCOON:068:1,2008-02-09T12:00:00Z,27.2970,-97.4049,0.0,2.8,113.0,3.4,'11111222,11111222,11111222' 
TCOON,ioos:station:TCOON:068:1,2008-02-09T13:00:00Z,27.2970,-97.4049,0.0,3.2,113.0,4.2,'11111222,11111222,11111222' 
TCOON,ioos:station:TCOON:068:1,2008-02-09T14:00:00Z,27.2970,-97.4049,0.0,4.0,110.0,4.8,'11111222,11111222,11111222' 
TCOON,ioos:station:TCOON:068:1,2008-02-09T15:00:00Z,27.2970,-97.4049,0.0,3.5,119.0,4.4,'11111222,11111222,11111222' 